RH
2 2 2 2 18 13 15 19 17 22 17 24 24 28 34 30 30 31 21 26 21 24 19 22 25 24 25 24 15 14 14 16 18 19 21 24 26 27 25 24 22 21 19 17 16 15 14 13 12
2 2 2 2 13 12 18 24 26 24 24 25 28 29 29 36 26 15 15 19 21 24 23 22 26 27 26 25 21 17 17 18 19 20 23 27 29 30 31 30 30 29 28 26 25 23 21 20 18
3 2 6 20 18 13 15 24 30 26 28 29 30 32 29 28 25 16 14 21 22 23 23 23 23 24 24 24 24 19 18 19 20 20 22 26 28 30 32 32 32 29 29 31 32 33 34 33 32
2 2 4 22 18 23 23 25 30 31 31 31 40 39 32 32 22 23 14 22 24 23 23 22 22 22 21 20 21 22 20 18 20 21 23 26 28 29 30 31 31 32 32 32 31 30 31 32 34
3 2 17 19 23 27 32 22 32 39 35 30 33 41 33 33 26 31 19 21 24 24 24 22 21 21 20 20 19 21 21 20 20 22 24 26 27 28 29 30 28 28 28 27 28 31 32 34 35
17 9 14 18 23 26 29 29 32 39 32 32 34 36 36 33 29 27 26 18 22 24 24 23 22 20 20 20 18 18 20 22 21 22 24 26 27 28 28 26 24 22 22 23 23 24 26 26 27
23 23 17 23 25 25 26 32 33 36 34 33 38 43 40 34 26 25 25 20 19 22 21 22 21 21 20 19 18 18 18 20 21 23 24 25 26 27 25 24 23 23 23 23 23 22 22 24 25
8 22 23 24 24 28 22 23 31 33 39 37 35 41 45 35 27 26 26 21 24 19 19 19 20 20 20 20 19 18 17 18 20 22 25 24 26 25 23 22 24 25 26 27 28 27 26 26 25
7 20 18 23 25 28 26 26 26 27 33 31 33 34 37 36 34 26 27 27 29 20 19 20 23 22 20 20 20 18 17 17 18 20 23 25 24 24 24 25 26 27 28 30 32 28 28 28 27
16 18 20 27 26 27 26 27 31 32 29 27 30 37 40 37 35 30 28 30 30 29 21 20 20 23 22 21 21 20 18 18 18 19 20 24 25 25 25 26 28 30 31 33 34 33 32 35 34
20 21 22 28 25 26 25 27 26 41 48 40 48 40 42 37 36 27 27 33 31 31 29 26 24 22 22 21 22 22 22 20 18 18 19 20 22 24 25 26 28 30 32 34 35 38 36 37 38
22 19 14 28 25 26 26 24 25 25 36 39 38 38 45 38 36 25 26 33 35 34 31 29 29 27 24 22 22 23 24 24 22 20 19 20 21 21 22 23 25 26 28 32 35 40 42 42 35
21 21 19 18 18 23 25 26 24 24 26 27 31 27 28 33 26 24 24 26 33 30 31 28 26 29 29 26 23 23 24 25 26 26 24 23 23 23 23 24 26 28 31 34 36 39 40 40 34
26 21 20 18 19 18 20 25 25 25 24 24 24 24 24 24 24 25 25 28 34 36 35 29 26 27 30 29 27 25 26 26 27 29 28 28 27 26 27 28 30 31 33 36 39 41 43 41 37
19 21 24 19 19 20 17 21 23 25 25 24 24 24 23 21 21 23 24 28 32 33 37 39 32 30 25 30 28 29 28 28 28 28 28 27 27 27 28 29 31 33 34 36 39 42 46 44 40
12 16 20 23 19 18 18 16 18 23 24 26 24 24 24 23 21 21 20 22 23 26 30 36 40 36 32 29 29 28 28 28 27 27 25 24 26 27 28 29 30 33 35 36 38 41 46 51 44
19 10 16 17 13 15 19 19 23 22 17 20 21 20 21 22 22 21 19 19 21 23 24 25 29 39 38 36 32 29 28 32 28 27 28 32 31 29 28 29 30 32 33 34 36 38 43 46 50
13 22 16 15 19 15 16 18 19 22 24 22 21 23 22 22 22 22 22 20 18 21 22 22 22 23 30 44 38 32 34 32 32 30 38 43 44 44 40 35 33 33 33 34 35 38 42 48 50
23 24 22 21 25 15 17 15 14 14 14 14 14 14 14 12 18 21 20 20 18 16 17 22 21 21 22 23 32 38 34 36 31 30 34 40 46 48 48 48 49 48 42 41 37 37 39 42 44
37 39 39 40 41 42 38 30 27 26 22 22 21 24 28 21 12 6 12 17 15 12 14 16 21 20 20 21 22 23 41 38 39 39 39 41 45 52 53 52 51 50 52 52 45 41 40 42 42
54 52 48 48 45 43 45 38 35 30 31 32 33 32 33 31 27 19 10 7 7 8 10 12 15 20 20 21 21 23 24 29 37 36 35 37 44 54 58 58 58 56 54 59 56 50 47 46 46
45 47 48 46 44 41 40 36 32 31 32 36 36 38 33 33 32 31 27 22 15 12 12 16 21 19 20 21 22 23 24 22 23 28 35 42 45 49 54 58 63 66 66 66 66 58 55 51 55
37 44 45 44 42 41 38 40 34 34 35 36 42 42 38 37 35 32 31 29 27 23 21 23 23 22 22 22 24 25 25 23 22 24 25 26 29 32 36 41 48 55 59 62 72 74 65 58 61
53 50 48 45 40 38 34 34 29 26 34 40 42 41 36 36 34 35 33 31 30 30 28 27 26 25 22 22 22 22 23 24 24 25 25 24 24 25 26 27 31 38 46 49 56 75 75 69 79
54 46 38 42 42 35 30 30 28 33 40 48 43 42 43 42 39 42 40 39 38 36 31 30 30 31 31 28 26 24 23 23 22 22 23 24 24 23 22 23 25 27 29 34 42 58 66 81 91
49 50 36 42 30 26 44 34 28 43 42 43 47 49 50 48 48 48 46 41 37 36 34 28 27 29 27 27 27 28 26 25 24 22 21 21 21 21 21 21 22 22 24 29 33 36 50 89 93
45 46 37 38 40 44 30 26 30 38 49 56 46 41 41 38 42 48 45 45 44 43 44 40 38 36 36 33 27 24 23 25 25 25 24 22 22 20 20 20 19 19 19 27 29 40 51 90 96
62 58 54 47 53 46 26 24 27 38 43 44 59 51 52 55 52 48 48 51 52 47 44 34 32 34 34 34 32 32 32 31 26 22 22 23 23 24 22 19 19 18 18 21 30 44 55 80 88
56 58 56 58 56 50 39 22 42 46 35 44 58 63 60 50 45 42 37 37 35 34 27 25 28 35 37 34 31 28 27 30 34 34 29 22 22 22 24 24 21 18 16 20 30 43 57 80 76
58 51 53 55 53 61 60 45 33 57 55 62 59 54 37 36 33 16 10 8 7 7 7 7 7 11 15 20 24 23 24 24 26 32 37 34 28 23 25 26 25 24 19 28 32 48 62 73 71
Wind_Speed
2 3 5 6 3 6 8 3 4 4 8 7 10 9 5 2 5 6 11 8 8 10 5 9 10 12 12 11 10 10 10 12 11 10 10 9 9 9 10 10 11 12 12 12 12 11 11 10 9
1 5 6 7 4 11 10 6 3 8 10 11 11 9 1 2 3 6 6 3 9 10 7 7 7 8 10 10 9 8 8 8 8 8 7 6 6 6 6 6 7 7 8 8 9 9 9 8 8
1 5 7 3 6 7 7 6 6 10 11 12 13 9 2 1 5 5 1 4 8 10 10 7 6 7 8 9 9 8 7 6 5 6 5 4 3 3 4 5 5 4 4 4 4 5 5 5 5
3 7 6 4 7 5 6 4 12 12 13 13 8 4 4 1 2 4 3 5 8 9 9 8 7 7 7 8 8 7 6 6 5 4 2 1 1 2 3 4 4 4 5 5 5 4 4 4 4
4 7 5 9 6 4 6 13 18 13 12 9 10 6 2 2 1 5 5 4 7 7 7 8 8 8 7 7 7 7 7 6 6 4 3 2 2 3 3 4 5 5 6 6 6 5 5 5 5
2 6 6 12 7 4 5 8 21 14 13 10 9 8 4 0 4 5 3 5 6 8 8 7 7 8 7 6 7 8 8 8 7 6 5 4 3 4 4 4 5 7 7 7 7 6 6 5 5
4 4 7 8 7 6 3 10 20 11 10 11 6 7 5 2 3 7 3 2 2 5 7 7 7 7 7 8 9 9 9 9 8 7 7 6 4 4 4 4 4 6 8 9 10 10 10 9 8
7 5 7 8 7 2 9 15 18 15 11 13 10 6 6 4 3 4 5 2 4 2 7 7 7 8 7 7 9 11 11 10 10 9 8 7 7 6 5 5 6 7 9 10 12 13 13 13 13
8 7 10 10 7 2 9 14 19 19 17 14 13 11 9 7 4 1 2 2 3 2 1 4 6 8 10 10 11 12 13 13 12 11 10 9 8 8 8 7 8 9 10 12 13 14 14 14 14
9 9 10 10 11 5 6 9 12 12 12 11 12 10 10 7 7 2 2 0 1 3 2 2 5 8 10 11 12 13 14 14 14 13 12 11 11 10 10 11 10 11 12 13 14 15 15 15 16
11 9 10 9 13 11 7 2 10 5 7 10 10 11 13 9 7 6 4 4 3 2 2 3 5 7 10 12 12 14 15 15 16 15 15 14 13 13 12 13 14 14 15 15 16 16 17 17 16
11 13 12 9 13 13 9 11 6 11 9 13 13 12 14 12 11 7 6 8 6 5 5 7 8 8 10 12 13 14 15 16 16 17 17 16 15 15 15 15 15 15 16 16 17 17 17 18 16
14 14 12 14 15 16 14 11 12 10 9 14 12 12 12 12 10 11 11 11 11 8 7 6 7 10 11 13 14 15 15 16 16 17 18 18 17 16 17 17 17 17 17 17 18 18 18 18 18
16 16 14 13 14 15 17 14 17 12 13 12 11 12 12 11 11 10 11 13 14 13 11 9 7 7 12 14 16 16 17 17 17 18 18 19 18 18 18 18 18 19 18 19 19 19 18 18 18
21 19 17 18 15 15 14 17 25 16 19 16 15 14 13 13 13 12 14 15 17 17 17 17 14 13 8 14 17 18 19 19 18 18 19 19 19 18 19 18 18 19 19 20 21 20 20 20 19
15 18 13 11 16 19 18 20 12 23 24 18 22 20 19 19 18 16 16 16 18 20 19 22 21 19 18 15 18 20 21 22 21 20 20 21 20 20 20 21 21 22 22 22 22 22 22 21 21
14 16 12 11 15 15 17 17 14 20 22 20 22 24 24 23 22 20 18 19 20 21 22 23 24 25 24 23 20 22 23 24 24 23 22 21 22 23 24 24 25 25 26 25 25 24 23 23 22
16 14 13 12 10 12 16 21 23 20 19 21 22 20 22 22 22 25 25 24 23 24 24 23 28 28 30 30 29 26 25 22 24 26 25 23 22 22 26 27 29 30 29 29 26 28 25 25 25
14 14 14 12 12 19 21 28 24 24 24 24 20 19 24 27 26 30 31 32 31 30 30 30 29 28 35 35 33 34 32 30 28 27 28 27 27 27 26 26 28 29 31 31 32 32 30 27 27
18 19 20 17 17 21 22 31 24 23 25 22 23 21 23 21 20 29 34 37 37 35 34 34 34 34 34 38 38 38 39 38 38 35 34 33 33 33 32 31 31 31 32 31 34 34 33 32 30
21 23 22 19 15 23 25 41 30 24 22 21 18 20 17 19 18 22 27 32 34 36 35 34 35 38 37 37 39 39 41 43 43 42 40 40 39 39 38 38 37 36 35 36 35 36 36 37 33
19 18 18 16 13 22 16 34 27 23 20 18 13 11 16 16 17 19 21 27 31 32 33 33 31 34 36 35 38 41 42 45 42 44 45 48 47 45 45 45 45 43 43 42 41 41 38 40 38
12 12 6 6 10 16 20 21 24 15 15 11 17 23 24 24 26 24 25 29 32 33 33 32 32 32 33 33 30 33 38 41 46 47 45 45 47 48 47 47 47 46 46 46 46 46 45 44 48
13 11 9 9 13 18 22 25 17 18 10 12 16 15 16 15 18 19 23 25 26 28 30 30 30 31 34 34 35 32 30 32 37 43 45 46 48 49 45 44 45 47 48 47 48 48 47 52 47
9 12 8 9 8 13 10 16 24 13 9 7 12 16 17 19 22 26 31 29 30 30 32 36 36 34 33 36 36 38 39 37 37 38 42 46 48 48 45 45 45 46 47 46 47 48 46 51 47
14 13 9 10 11 12 5 12 9 10 13 16 14 13 17 19 22 25 29 34 36 35 30 32 37 37 38 39 40 41 43 44 43 42 42 44 46 49 50 51 47 45 47 48 46 47 41 43 41
12 14 17 18 13 11 18 23 21 17 15 7 12 15 14 24 24 23 23 23 25 26 24 26 29 29 28 29 34 39 44 47 50 48 47 48 46 46 48 49 48 47 47 45 46 43 41 41 43
7 10 6 11 5 9 12 16 16 8 7 14 8 13 14 17 22 26 27 30 28 30 33 36 33 32 32 32 30 30 29 37 45 51 51 52 51 50 49 52 53 52 54 49 46 43 41 42 42
8 10 8 6 9 4 7 10 3 10 15 14 11 12 18 25 29 32 33 35 38 39 40 40 38 38 38 36 37 38 38 33 34 40 45 49 52 53 53 56 56 52 56 56 47 44 43 42 43
11 7 8 11 9 11 14 34 21 11 9 11 17 23 34 32 32 29 30 32 33 34 35 38 39 38 39 41 38 36 39 41 40 36 37 41 46 51 55 56 54 56 60 53 46 46 43 42 41
Wind_Direction
224 180 144 139 134 173 167 160 162 146 163 171 160 162 182 291 325 307 297 289 208 165 120 111 108 105 103 96 112 117 120 119 118 111 104 95 85 83 85 83 82 84 84 86 88 87 86 89 93
163 148 135 143 181 190 159 150 128 153 158 153 149 162 151 312 332 291 287 233 201 172 152 124 133 127 121 114 113 126 124 122 123 120 116 103 88 77 76 73 76 77 83 82 82 83 84 79 77
131 133 141 188 196 221 163 165 150 159 153 154 162 167 192 303 333 323 297 167 210 185 168 156 148 162 161 141 133 136 132 131 132 124 127 114 85 54 48 46 57 60 64 72 71 68 64 58 52
143 142 150 171 182 188 161 173 175 162 159 159 173 189 223 355 351 18 70 157 194 195 177 171 170 180 172 163 158 155 153 164 158 149 163 148 43 16 5 10 16 31 33 33 38 30 22 15 4
163 155 196 189 182 169 177 187 173 167 176 164 173 215 209 359 54 359 61 148 181 202 195 191 182 184 178 170 178 181 182 191 185 181 199 221 286 310 324 341 351 2 10 8 10 15 12 359 352
162 170 201 190 177 159 177 181 173 173 179 184 189 207 234 320 65 31 67 140 190 194 200 205 202 191 184 183 198 199 201 207 207 202 208 222 246 279 304 326 342 348 351 351 348 344 343 343 338
188 194 207 184 174 142 183 175 179 192 191 193 191 200 235 202 91 28 13 77 156 213 209 203 216 215 200 194 208 215 212 216 221 223 220 224 232 262 282 303 321 333 337 337 334 331 330 330 328
195 190 189 183 171 144 182 190 195 194 214 210 209 221 245 209 146 51 40 64 51 212 219 210 219 225 223 215 214 219 222 223 229 232 235 242 238 239 258 285 303 312 318 323 325 322 321 320 321
200 204 201 194 170 181 174 180 198 207 206 209 220 224 217 213 198 88 30 89 27 32 217 229 230 231 227 226 221 224 225 227 229 234 241 246 248 253 260 270 283 297 306 312 317 314 315 317 315
202 216 204 196 181 161 155 178 186 188 201 212 221 210 218 225 220 246 271 319 65 14 360 298 269 252 241 235 233 229 228 234 237 235 238 242 252 261 268 275 279 287 294 300 306 306 307 316 314
225 207 224 215 199 179 173 219 185 193 214 197 207 232 213 233 233 256 237 234 242 256 330 326 295 264 256 249 245 240 237 235 236 239 241 245 248 254 262 273 281 283 287 292 296 300 298 304 308
232 234 222 234 222 208 202 196 215 197 210 209 213 210 216 230 242 235 232 226 249 258 261 287 299 291 258 249 250 248 246 243 243 245 245 247 251 256 259 263 271 280 285 289 292 295 296 297 298
243 244 231 237 234 236 230 224 224 218 236 212 216 220 230 236 243 237 236 232 238 245 240 269 292 289 269 252 247 249 251 249 248 248 249 251 252 256 261 266 270 274 280 284 288 291 291 292 293
244 247 246 242 249 245 247 249 232 232 233 235 234 231 238 246 244 233 240 245 246 250 244 249 256 277 268 258 249 246 247 247 248 248 249 250 251 256 262 267 274 277 279 280 282 285 289 288 289
243 252 255 245 246 259 253 246 239 236 242 242 242 241 243 243 248 249 234 237 240 245 245 245 254 254 260 259 251 247 245 243 245 251 247 244 248 254 260 267 271 273 277 280 283 282 283 286 285
239 253 245 256 247 245 251 253 250 237 247 251 255 260 260 257 253 262 258 251 246 246 246 246 248 253 255 251 248 247 246 244 243 245 246 245 248 255 260 266 270 274 275 276 280 284 282 281 282
246 245 243 241 252 252 248 250 247 249 250 248 248 250 254 257 260 266 263 256 254 251 251 252 250 251 253 257 250 244 246 247 245 244 245 248 252 256 260 266 270 271 274 279 281 284 283 281 278
243 238 246 240 260 250 252 256 245 255 262 262 256 254 250 246 250 262 259 254 253 252 252 254 257 255 253 251 251 245 238 236 239 241 241 243 250 258 265 268 272 273 273 276 283 281 281 276 274
247 250 248 251 261 270 265 266 260 260 259 264 268 270 266 256 248 255 255 258 261 260 255 255 257 258 250 250 250 250 247 241 240 243 242 245 251 254 259 264 268 273 274 276 278 279 277 277 275
244 254 256 261 264 270 273 267 266 268 267 266 266 270 281 275 253 248 250 254 260 262 261 258 257 261 259 250 252 250 248 248 246 246 247 250 252 254 256 260 264 269 270 270 272 275 278 276 275
247 254 258 259 261 271 282 275 273 274 255 266 269 274 277 274 261 253 249 251 254 257 259 259 257 256 264 258 249 249 248 249 249 249 252 253 254 256 258 261 263 266 269 269 269 271 273 275 275
248 253 252 248 251 267 255 278 268 262 264 276 281 241 260 255 249 252 255 257 257 260 260 258 253 255 259 264 253 249 250 247 248 252 254 256 259 259 260 262 264 266 269 272 272 269 268 269 270
238 226 213 210 241 269 256 266 280 259 253 256 253 266 260 253 255 244 238 239 246 251 253 257 259 258 255 256 256 252 250 249 250 252 253 259 263 262 259 260 263 265 266 269 270 270 269 264 268
219 234 245 244 252 256 258 254 286 278 229 226 234 231 235 249 246 252 264 258 253 255 253 251 253 258 259 259 257 255 255 250 247 250 253 255 258 262 259 259 261 263 264 265 267 268 266 266 266
192 195 211 220 213 251 254 243 245 265 276 212 241 250 267 275 279 277 280 279 275 273 269 267 268 267 268 262 260 258 258 257 255 251 252 252 253 256 257 257 258 258 261 262 262 264 264 264 267
226 212 224 242 255 251 203 244 257 232 242 230 229 263 274 284 287 284 284 287 286 287 289 283 281 279 277 272 268 266 263 262 261 258 257 255 256 257 258 257 259 260 258 259 258 259 260 262 268
223 226 241 252 263 276 253 262 263 260 243 266 274 268 277 274 281 278 275 278 280 282 285 289 291 293 292 284 279 273 270 268 268 268 264 260 260 259 258 258 258 260 264 260 255 251 251 254 257
181 188 181 207 238 246 254 264 254 196 220 259 273 266 266 264 269 268 277 282 281 287 290 290 288 287 286 290 289 285 280 274 270 267 267 265 264 264 263 261 259 261 263 262 251 245 241 248 254
201 208 219 235 232 270 290 265 249 234 259 267 265 270 285 287 285 280 280 280 284 286 287 288 285 283 283 283 286 290 288 285 277 269 268 265 262 261 261 262 263 262 262 262 251 241 238 241 249
198 203 209 234 219 238 275 270 273 254 278 308 302 308 310 309 305 298 295 292 288 287 284 281 281 279 281 282 283 284 285 287 284 286 269 264 261 257 258 258 259 258 258 260 246 237 236 241 250